N6ZQK Weather Reports


Display with metric or nautical units.
time (UTC)temp
F
wind
direction
speed
MPH
gust
MPH
rain 1hr
in
rain 24hr
in
rain mn
in
humidity
%
barometer
mb
20260831093603 66 96 4.0 12.0 0.00 0.00 0.00 47 1007.7
20260831093218 66 96 5.0 12.0 0.00 0.00 0.00 47 1007.7
20260831092403 66 98 5.0 12.0 0.00 0.00 0.00 47 1007.7
20260831091803 66 93 4.0 13.0 0.00 0.00 0.00 47 1007.7
20260831091203 66 94 4.0 12.0 0.00 0.00 0.00 47 1007.7
20260831090817 66 96 4.0 13.0 0.00 0.00 0.00 46 1007.8
20260831090003 66 102 4.0 13.0 0.00 0.00 0.00 46 1007.8
20260831085403 67 100 5.0 13.0 0.00 0.00 0.00 46 1007.7
20260831084803 67 101 5.0 16.0 0.00 0.00 0.00 46 1007.7
20260831084203 67 98 4.0 14.0 0.00 0.00 0.00 46 1007.7
20260831083603 67 98 5.0 15.0 0.00 0.00 0.00 46 1007.6
20260831083003 67 101 5.0 15.0 0.00 0.00 0.00 45 1007.7
20260831082403 67 98 5.0 15.0 0.00 0.00 0.00 45 1007.7
20260831081803 67 99 5.0 13.0 0.00 0.00 0.00 45 1007.7
20260831081203 67 101 5.0 14.0 0.00 0.00 0.00 45 1007.8
20260831080819 67 101 6.0 14.0 0.00 0.00 0.00 45 1007.8
20260831080218 67 98 6.0 14.0 0.00 0.00 0.00 45 1007.8
20260831075403 67 98 5.0 15.0 0.00 0.00 0.00 45 1008.0
20260831074803 67 100 6.0 15.0 0.00 0.00 0.00 45 1008.1
20260831074203 67 96 4.0 13.0 0.00 0.00 0.00 46 1008.1
20260831073603 67 92 3.0 10.0 0.00 0.00 0.00 45 1008.1
20260831073003 67 87 3.0 12.0 0.00 0.00 0.00 45 1008.1
20260831072404 67 90 4.0 12.0 0.00 0.00 0.00 45 1008.1
20260831071803 67 93 4.0 9.0 0.00 0.00 0.00 46 1008.1
20260831071203 67 95 3.0 7.0 0.00 0.00 0.00 46 1008.0
20260831070603 67 95 3.0 7.0 0.00 0.00 0.00 45 1008.1
20260831070004 67 97 3.0 9.0 0.00 0.00 0.00 45 1008.1
20260831065403 67 100 3.0 9.0 0.00 0.00 0.00 45 1008.2
20260831064804 67 102 2.0 8.0 0.00 0.00 0.00 45 1008.3
20260831064203 67 105 2.0 6.0 0.00 0.00 0.00 45 1008.3
20260831063603 67 107 3.0 7.0 0.00 0.00 0.00 45 1008.3
20260831063217 67 108 3.0 7.0 0.00 0.00 0.00 45 1008.3
20260831062403 67 111 2.0 6.0 0.00 0.00 0.00 44 1008.4
20260831061803 67 112 3.0 6.0 0.00 0.00 0.00 44 1008.4
20260831061203 68 113 2.0 6.0 0.00 0.00 0.00 44 1008.4
20260831060603 68 113 1.0 5.0 0.00 0.00 0.00 44 1008.4
20260831060003 68 113 1.0 6.0 0.00 0.00 0.00 44 1008.7
20260831055617 68 113 1.0 6.0 0.00 0.00 0.00 44 1008.7
20260831055018 68 115 2.0 6.0 0.00 0.00 0.00 44 1008.7
20260831054203 68 118 2.0 6.0 0.00 0.00 0.00 43 1008.7
20260831053603 68 120 2.0 5.0 0.00 0.00 0.00 42 1008.8
20260831053003 67 126 2.0 6.0 0.00 0.00 0.00 42 1008.8
20260831052404 67 138 1.0 5.0 0.00 0.00 0.00 42 1008.9
20260831051803 67 149 2.0 5.0 0.00 0.00 0.00 41 1008.9
20260831051203 67 165 1.0 5.0 0.00 0.00 0.00 41 1008.9
20260831050604 67 208 0.0 4.0 0.00 0.00 0.00 41 1009.0
20260831050003 67 223 0.0 3.0 0.00 0.00 0.00 41 1009.1
20260831045403 67 223 0.0 3.0 0.00 0.00 0.00 41 1009.2
20260831044803 67 223 0.0 2.0 0.00 0.00 0.00 40 1009.2
20260831044203 68 223 0.0 2.0 0.00 0.00 0.00 40 1009.2
20260831043603 68 223 0.0 2.0 0.00 0.00 0.00 40 1009.2
20260831043004 68 223 0.0 2.0 0.00 0.00 0.00 40 1009.2
20260831042403 68 223 0.0 2.0 0.00 0.00 0.00 39 1009.2
20260831041803 69 223 0.0 2.0 0.00 0.00 0.00 39 1008.9
20260831041203 69 223 0.0 2.0 0.00 0.00 0.00 39 1008.9
20260831040604 69 223 0.0 2.0 0.00 0.00 0.00 38 1008.9
20260831040003 69 223 0.0 2.0 0.00 0.00 0.00 38 1009.3
20260831035403 69 223 0.0 3.0 0.00 0.00 0.00 38 1009.4
20260831034803 70 223 0.0 3.0 0.00 0.00 0.00 37 1009.3
20260831034203 70 223 0.0 3.0 0.00 0.00 0.00 37 1009.3
20260831033603 70 223 0.0 3.0 0.00 0.00 0.00 37 1009.3
20260831033004 70 223 0.0 2.0 0.00 0.00 0.00 37 1009.2
20260831032403 71 223 0.0 2.0 0.00 0.00 0.00 36 1009.0
20260831031803 71 223 0.0 4.0 0.00 0.00 0.00 36 1009.0
20260831031203 71 223 0.0 4.0 0.00 0.00 0.00 36 1009.0
20260831030603 71 223 0.0 2.0 0.00 0.00 0.00 36 1008.9
20260831030003 72 223 0.0 3.0 0.00 0.00 0.00 36 1009.3
20260831025403 72 223 0.0 3.0 0.00 0.00 0.00 36 1009.3
20260831024803 72 223 0.0 2.0 0.00 0.00 0.00 36 1009.2
20260831024417 72 223 0.0 2.0 0.00 0.00 0.00 37 1009.1
20260831023604 73 223 0.0 2.0 0.00 0.00 0.00 37 1008.8
20260831023003 73 223 0.0 2.0 0.00 0.00 0.00 37 1008.8
20260831022403 74 223 0.0 3.0 0.00 0.00 0.00 37 1008.8
20260831021803 74 223 0.0 3.0 0.00 0.00 0.00 37 1008.8
20260831021416 75 223 0.0 3.0 0.00 0.00 0.00 36 1008.7
20260831020603 76 223 0.0 3.0 0.00 0.00 0.00 36 1008.7
20260831020003 76 223 0.0 3.0 0.00 0.00 0.00 35 1008.7
20260831015617 77 223 0.0 2.0 0.00 0.00 0.00 35 1008.7
20260831014803 77 223 0.0 2.0 0.00 0.00 0.00 33 1008.7
20260831014203 77 223 0.0 4.0 0.00 0.00 0.00 32 1008.7
20260831013603 78 223 1.0 4.0 0.00 0.00 0.00 32 1008.6
20260831013003 78 223 0.0 4.0 0.00 0.00 0.00 32 1008.5
20260831012617 78 223 0.0 4.0 0.00 0.00 0.00 31 1008.5
20260831011803 78 224 1.0 5.0 0.00 0.00 0.00 31 1008.6
20260831011203 79 225 1.0 5.0 0.00 0.00 0.00 30 1008.7
20260831010603 79 226 1.0 5.0 0.00 0.00 0.00 30 1008.7
20260831010217 79 229 1.0 5.0 0.00 0.00 0.00 30 1008.7
20260831005403 80 249 0.0 3.0 0.00 0.00 0.00 30 1008.5
20260831004803 80 237 1.0 5.0 0.00 0.00 0.00 28 1008.6
20260831004203 80 231 2.0 5.0 0.00 0.00 0.00 30 1008.6
20260831003603 80 235 2.0 9.0 0.00 0.00 0.00 29 1008.7
20260831003217 80 233 2.0 9.0 0.00 0.00 0.00 28 1008.7
20260831002403 80 220 1.0 6.0 0.00 0.00 0.00 29 1008.7
20260831001803 80 204 2.0 14.0 0.00 0.00 0.00 28 1008.7
20260831001418 80 210 3.0 14.0 0.00 0.00 0.00 27 1008.8
20260831000603 80 231 2.0 13.0 0.00 0.00 0.00 28 1008.8
20260831000003 80 243 2.0 13.0 0.00 0.00 0.00 27 1008.9
20260830235619 80 224 2.0 12.0 0.00 0.00 0.00 28 1008.8
20260830234803 80 203 3.0 12.0 0.00 0.00 0.00 28 1008.8
20260830234203 81 210 2.0 10.0 0.00 0.00 0.00 28 1008.8
20260830233817 81 211 2.0 9.0 0.00 0.00 0.00 28 1008.8
20260830233217 81 219 2.0 10.0 0.00 0.00 0.00 27 1008.9
20260830232403 81 233 2.0 10.0 0.00 0.00 0.00 28 1008.9
20260830231803 81 245 2.0 7.0 0.00 0.00 0.00 28 1008.8
20260830231203 81 248 2.0 6.0 0.00 0.00 0.00 28 1008.9
20260830230603 81 243 2.0 10.0 0.00 0.00 0.00 29 1009.0
20260830230003 81 229 5.0 15.0 0.00 0.00 0.00 29 1009.0
20260830225403 81 213 5.0 15.0 0.00 0.00 0.00 29 1009.0
20260830224803 81 214 6.0 16.0 0.00 0.00 0.00 30 1009.1
20260830224203 81 223 4.0 12.0 0.00 0.00 0.00 30 1009.0
20260830223817 81 232 3.0 12.0 0.00 0.00 0.00 30 1009.0
20260830223003 81 239 4.0 14.0 0.00 0.00 0.00 29 1009.1
20260830222403 81 230 3.0 10.0 0.00 0.00 0.00 29 1009.3
20260830221803 81 220 4.0 10.0 0.00 0.00 0.00 31 1009.3
20260830221417 81 223 3.0 9.0 0.00 0.00 0.00 31 1009.4
20260830220603 81 213 3.0 10.0 0.00 0.00 0.00 30 1009.6
20260830220003 81 206 2.0 13.0 0.00 0.00 0.00 31 1009.5
20260830215403 81 205 3.0 13.0 0.00 0.00 0.00 32 1009.7
20260830215017 81 214 5.0 16.0 0.00 0.00 0.00 31 1009.6
20260830214203 81 240 6.0 16.0 0.00 0.00 0.00 32 1009.7
20260830213603 81 248 4.0 13.0 0.00 0.00 0.00 32 1009.8
20260830213004 81 245 3.0 13.0 0.00 0.00 0.00 32 1009.7
20260830212403 81 231 4.0 14.0 0.00 0.00 0.00 32 1009.9
20260830211803 80 213 4.0 14.0 0.00 0.00 0.00 33 1009.9
20260830211203 80 237 4.0 14.0 0.00 0.00 0.00 32 1010.0
20260830210603 81 239 6.0 15.0 0.00 0.00 0.00 32 1009.9
20260830210004 80 246 4.0 14.0 0.00 0.00 0.00 32 1009.8
20260830205403 81 232 4.0 13.0 0.00 0.00 0.00 30 1009.9
20260830204803 81 225 4.0 13.0 0.00 0.00 0.00 31 1009.8
20260830204203 81 211 4.0 13.0 0.00 0.00 0.00 30 1009.9
20260830203603 81 227 4.0 12.0 0.00 0.00 0.00 31 1009.9
20260830203003 81 227 5.0 12.0 0.00 0.00 0.00 29 1010.0
20260830202403 80 227 3.0 12.0 0.00 0.00 0.00 31 1009.9
20260830201803 80 244 2.0 10.0 0.00 0.00 0.00 30 1009.9
20260830201203 80 242 5.0 16.0 0.00 0.00 0.00 29 1010.1
20260830200603 80 240 4.0 13.0 0.00 0.00 0.00 29 1010.1
20260830200003 80 203 4.0 18.0 0.00 0.00 0.00 30 1010.1
20260830195403 80 190 5.0 18.0 0.00 0.00 0.00 29 1010.3
20260830194803 80 210 4.0 13.0 0.00 0.00 0.00 29 1010.2
20260830194203 80 213 5.0 15.0 0.00 0.00 0.00 28 1010.2
20260830193603 80 199 3.0 12.0 0.00 0.00 0.00 28 1010.2
20260830193003 80 170 4.0 15.0 0.00 0.00 0.00 29 1010.3
20260830192403 80 177 4.0 15.0 0.00 0.00 0.00 29 1010.2
20260830191803 80 192 3.0 15.0 0.00 0.00 0.00 30 1010.3
20260830191203 80 187 5.0 15.0 0.00 0.00 0.00 31 1010.2
20260830190603 80 183 5.0 15.0 0.00 0.00 0.00 29 1010.3
20260830190003 79 179 5.0 12.0 0.00 0.00 0.00 30 1010.5
20260830185403 79 202 5.0 13.0 0.00 0.00 0.00 32 1010.5
20260830184803 79 203 2.0 12.0 0.00 0.00 0.00 33 1010.6
20260830184204 79 181 2.0 9.0 0.00 0.00 0.00 33 1010.6
20260830183603 79 214 4.0 10.0 0.00 0.00 0.00 32 1010.6
20260830183003 79 209 2.0 10.0 0.00 0.00 0.00 32 1010.7
20260830182404 78 180 3.0 14.0 0.00 0.00 0.00 33 1010.7
20260830181803 78 215 3.0 14.0 0.00 0.00 0.00 33 1010.7
20260830181203 78 216 2.0 6.0 0.00 0.00 0.00 32 1010.6
20260830180603 78 202 3.0 10.0 0.00 0.00 0.00 34 1010.6
20260830180003 77 207 3.0 9.0 0.00 0.00 0.00 33 1010.6
20260830175403 77 216 3.0 7.0 0.00 0.00 0.00 32 1010.6
20260830174803 77 202 3.0 7.0 0.00 0.00 0.00 34 1010.6
20260830174203 76 198 3.0 7.0 0.00 0.00 0.00 32 1010.8
20260830173603 76 203 3.0 9.0 0.00 0.00 0.00 31 1011.0
20260830173003 76 217 2.0 6.0 0.00 0.00 0.00 31 1010.9
20260830172403 76 211 1.0 6.0 0.00 0.00 0.00 32 1010.8
20260830171803 76 210 1.0 6.0 0.00 0.00 0.00 32 1010.8
20260830171203 76 173 1.0 6.0 0.00 0.00 0.00 33 1010.7
20260830170817 76 167 2.0 5.0 0.00 0.00 0.00 34 1010.7
20260830170003 75 158 1.0 5.0 0.00 0.00 0.00 33 1010.7
20260830165403 75 109 0.0 2.0 0.00 0.00 0.00 37 1010.7
20260830164803 74 109 0.0 3.0 0.00 0.00 0.00 37 1010.9
20260830164203 74 109 0.0 3.0 0.00 0.00 0.00 35 1010.9
20260830163603 73 109 0.0 2.0 0.00 0.00 0.00 39 1010.8
20260830163003 73 109 0.0 3.0 0.00 0.00 0.00 39 1010.8
20260830162403 72 109 0.0 4.0 0.00 0.00 0.00 39 1010.9
20260830161803 71 109 1.0 5.0 0.00 0.00 0.00 39 1010.9
20260830161204 70 109 1.0 5.0 0.00 0.00 0.00 42 1011.1
20260830160603 69 110 1.0 4.0 0.00 0.00 0.00 41 1011.1
20260830160003 68 110 1.0 5.0 0.00 0.00 0.00 42 1010.9
20260830155403 68 109 1.0 6.0 0.00 0.00 0.00 41 1011.0
20260830154803 68 111 2.0 8.0 0.00 0.00 0.00 41 1011.0
20260830154204 67 103 3.0 9.0 0.00 0.00 0.00 42 1011.2
20260830153603 67 96 3.0 12.0 0.00 0.00 0.00 43 1011.2
20260830153003 66 96 3.0 12.0 0.00 0.00 0.00 43 1011.3
20260830152403 66 97 4.0 10.0 0.00 0.00 0.00 43 1011.2
20260830151803 66 96 3.0 12.0 0.00 0.00 0.00 43 1011.3
20260830151203 65 96 4.0 14.0 0.00 0.00 0.00 43 1011.3
20260830150818 65 97 5.0 14.0 0.00 0.00 0.00 44 1011.3
20260830150003 65 96 5.0 15.0 0.00 0.00 0.00 44 1010.9
20260830145617 64 97 6.0 15.0 0.00 0.00 0.00 43 1010.9
20260830144803 64 101 5.0 15.0 0.00 0.00 0.00 43 1010.9
20260830144203 64 97 4.0 15.0 0.00 0.00 0.00 43 1010.9
20260830143603 64 95 4.0 12.0 0.00 0.00 0.00 43 1010.8
20260830143003 64 99 5.0 13.0 0.00 0.00 0.00 43 1010.9
20260830142403 64 96 5.0 14.0 0.00 0.00 0.00 43 1010.8
20260830141804 64 96 5.0 14.0 0.00 0.00 0.00 42 1010.8
20260830141203 64 98 6.0 13.0 0.00 0.00 0.00 42 1010.8
20260830140603 64 97 6.0 14.0 0.00 0.00 0.00 42 1010.6
20260830140003 64 94 5.0 14.0 0.00 0.00 0.00 42 1010.3
20260830135403 64 95 6.0 14.0 0.00 0.00 0.00 42 1010.3
20260830135018 64 97 6.0 14.0 0.00 0.00 0.00 42 1010.2
20260830134203 64 102 5.0 12.0 0.00 0.00 0.00 42 1010.2
20260830133817 64 104 5.0 12.0 0.00 0.00 0.00 42 1010.1
20260830133003 63 98 5.0 14.0 0.00 0.00 0.00 42 1010.3
20260830132403 63 96 5.0 14.0 0.00 0.00 0.00 42 1010.3
20260830132018 63 95 5.0 13.0 0.00 0.00 0.00 42 1010.3
20260830131204 63 97 4.0 13.0 0.00 0.00 0.00 42 1010.1
20260830130603 64 97 5.0 14.0 0.00 0.00 0.00 42 1010.2
20260830130003 64 96 6.0 17.0 0.00 0.00 0.00 42 1009.7
20260830125403 63 99 5.0 17.0 0.00 0.00 0.00 42 1009.7
20260830124803 63 101 4.0 12.0 0.00 0.00 0.00 42 1009.6
20260830124203 64 100 5.0 14.0 0.00 0.00 0.00 42 1009.6
20260830123603 64 95 5.0 14.0 0.00 0.00 0.00 42 1009.6
20260830123003 64 96 5.0 14.0 0.00 0.00 0.00 42 1009.5
20260830122403 64 97 5.0 13.0 0.00 0.00 0.00 43 1009.4
20260830122018 64 100 5.0 13.0 0.00 0.00 0.00 42 1009.5
20260830121203 64 96 5.0 14.0 0.00 0.00 0.00 42 1009.4
20260830120603 64 99 6.0 14.0 0.00 0.00 0.00 42 1009.4
20260830120004 64 99 6.0 14.0 0.00 0.00 0.00 42 1009.2
20260830115403 64 97 6.0 15.0 0.00 0.00 0.00 43 1009.3
20260830114803 64 102 6.0 15.0 0.00 0.00 0.00 43 1009.3
20260830114417 64 101 5.0 14.0 0.00 0.00 0.00 43 1009.4
20260830113603 64 101 6.0 14.0 0.00 0.00 0.00 43 1009.4
20260830113003 63 101 6.0 15.0 0.00 0.00 0.00 43 1009.7
20260830112403 64 101 6.0 15.0 0.00 0.00 0.00 44 1009.4
20260830111803 64 102 6.0 14.0 0.00 0.00 0.00 43 1009.6
20260830111417 64 102 5.0 13.0 0.00 0.00 0.00 43 1009.6
20260830110603 64 95 5.0 15.0 0.00 0.00 0.00 43 1009.6
20260830110004 64 99 5.0 14.0 0.00 0.00 0.00 43 1009.6
20260830105403 64 97 6.0 14.0 0.00 0.00 0.00 43 1009.6
20260830104803 64 98 5.0 13.0 0.00 0.00 0.00 43 1009.5
20260830104417 64 98 5.0 14.0 0.00 0.00 0.00 43 1009.5
20260830103603 64 95 6.0 14.0 0.00 0.00 0.00 43 1009.5
20260830103004 64 102 6.0 14.0 0.00 0.00 0.00 43 1009.6
20260830102403 64 103 6.0 14.0 0.00 0.00 0.00 43 1009.6
20260830101803 64 100 5.0 13.0 0.00 0.00 0.00 43 1009.6
20260830101203 64 103 5.0 12.0 0.00 0.00 0.00 43 1009.5
20260830100603 64 103 5.0 14.0 0.00 0.00 0.00 43 1009.5
20260830100004 64 100 5.0 13.0 0.00 0.00 0.00 43 1009.6
20260830095403 64 100 5.0 13.0 0.00 0.00 0.00 42 1009.6
20260830094803 64 102 5.0 16.0 0.00 0.00 0.00 42 1009.6
20260830094203 64 101 5.0 12.0 0.00 0.00 0.00 41 1009.6